Location: Red Shale Campground
(45.5700°N, 106.1600°W)
Time: 15:19:06
(UTC-07:00)

Daily predictions for brighter satellites

Satellite Brightness Start Highest point End
(mag) Time Altitude Azimuth Time Altitude Azimuth Time Altitude Azimuth
CZ-3A R/B 3.1 16:26:18 10° SW 16:30:15 87° SE 16:50:01 10° ENE
Cosmos 1833 Rocket 3.3 16:42:38 10° NNW 16:47:48 35° NE 16:52:55 10° ESE
Timation 2 Rocket 4.4 16:43:44 10° NNW 16:50:23 52° NE 16:57:05 10° SE
CZ-2C R/B 3.7 16:48:17 10° NNE 16:52:45 68° ESE 16:57:15 10° S
MTI 4.1 16:50:47 10° N 16:54:06 71° WNW 16:57:21 10° SSW
CZ-3B DEB 2.1 16:51:27 10° SW 16:54:51 72° SE 17:03:31 10° NE
Cosmos 2082 Rocket 2.5 16:51:54 10° NNW 16:57:22 46° ENE 17:02:49 10° SE
YAOGAN 1 3.1 16:53:52 10° SE 16:57:50 37° ENE 17:01:49 10° N
Cosmos 1500 3.8 16:54:39 10° N 16:58:14 36° ENE 17:01:48 10° SE
Cosmos 1743 4.0 16:57:50 10° NNE 17:00:47 20° ENE 17:03:42 10° ESE
PAYLOAD A 3.9 16:57:17 10° SSE 17:02:10 73° ENE 17:07:16 10° N
USA 234 3.9 16:56:58 10° ENE 17:03:06 41° SE 17:09:12 10° SSW
Intercosmos 25 4.3 17:02:49 10° NNE 17:05:11 19° ENE 17:07:38 10° ESE
CZ-2C R/B 2.6 17:02:34 10° SSE 17:07:30 56° ENE 17:12:34 10° N
Cosmos 2263 Rocket 4.4 17:06:02 10° WNW 17:09:21 16° NW 17:12:43 10° N
BREEZE M DEB (TANK) 4.4 17:00:28 10° SSW 17:09:52 34° SSE 17:13:17 10° E
Cosmos 1455 Rocket 3.2 17:07:08 10° N 17:11:34 83° W 17:16:01 10° S
Nadezhda 3 Rocket 4.4 17:09:44 10° SSE 17:15:29 41° E 17:21:19 10° NNE
NOSS 3-4 (A) 4.0 17:09:05 10° NNW 17:15:46 48° NE 17:22:50 10° ESE
NOSS 3-4 (C) 4.0 17:09:11 10° NNW 17:15:52 48° NE 17:22:55 10° ESE
SL-8 R/B 3.7 17:12:47 10° WSW 17:17:35 82° NNW 17:21:46 14° ENE
ERBS 4.1 17:16:49 10° NNW 17:19:13 17° NNE 17:20:42 14° NE
Cosmos 1484 Rocket 3.6 17:18:55 10° SE 17:22:04 26° ENE 17:25:13 10° N
NOSS 3-3 (A) 4.1 17:18:06 10° SW 17:24:21 84° NW 17:31:09 10° NE
NOSS 3-3 (C) 4.1 17:18:12 10° SW 17:24:27 84° NW 17:31:15 10° NE
BREEZE M DEB (TANK) 2.8 17:22:25 10° WNW 17:25:19 61° NNE 17:33:07 10° E
SJ-7 4.4 17:22:52 10° SSE 17:27:04 70° ENE 17:31:19 10° N
EP 1 4.1 17:26:00 10° SSW 17:28:34 68° SE 17:30:12 20° NE
SMAP 3.0 17:26:32 10° SSE 17:31:11 87° E 17:35:52 10° NNW
Cosmos 1975 3.1 17:27:25 10° NNW 17:31:30 73° W 17:35:30 10° S
Cosmos 1844 Rocket 4.1 17:26:27 10° WSW 17:31:32 34° NW 17:36:40 10° NNE
Cosmos 1809 Rocket 4.4 17:26:22 10° N 17:32:32 75° E 17:38:38 10° SSE
SL-24 DEB 4.3 17:29:47 10° NNE 17:34:28 58° E 17:39:04 10° S
CORIOLIS 4.1 17:32:54 10° SSE 17:38:19 89° ENE 17:43:44 10° NNW
Tiangong 1 1.7 17:36:25 10° WSW 17:39:21 44° S 17:41:00 21° ESE
Cosmos 1812 3.9 17:36:26 10° SSW 17:40:08 44° WNW 17:43:52 10° N
ISS -2.0 17:39:23 10° WNW 17:42:16 27° N 17:43:28 22° NE
Okean 1-7 Rocket 3.8 17:38:02 10° SSE 17:42:22 51° E 17:46:42 10° NNE
CZ-4 R/B 4.4 17:39:36 10° SSE 17:43:45 83° ENE 17:47:57 10° NNW
CZ-4 R/B 2.4 17:40:46 10° S 17:44:48 49° W 17:48:48 10° NNW
Cosmos 1371 Rocket 4.4 17:40:21 10° S 17:45:24 44° ESE 17:49:17 17° NE
COSMOS 2487 4.0 17:42:03 10° NW 17:45:26 40° WSW 17:48:48 10° S
Meteor 1-13 Rocket 4.2 17:40:49 10° S 17:46:29 67° E 17:52:18 10° NNE
Meteor 2-4 Rocket 4.1 17:41:45 10° SSE 17:46:39 38° E 17:51:12 12° NNE
SPOT 3 Rocket 4.2 17:48:42 10° S 17:53:47 59° WSW 17:58:55 10° NNW
Cosmos 1934 Rocket 4.1 17:49:32 10° N 17:55:35 51° ENE 18:01:42 10° SSE
MSX 3.9 17:50:50 10° SSE 17:56:35 85° WSW 18:02:23 10° NNW
Cosmos 1606 Rocket 3.8 17:55:02 10° N 17:59:21 45° ENE 18:03:39 10° SSE
Cosmos 1535 Rocket 4.4 17:59:45 10° N 18:06:05 76° E 18:12:16 10° SSE
OE (NEXTSAT) 4.3 18:03:44 10° W 18:07:20 84° N 18:08:08 52° ENE
COSMO-SKYMED 1 2.5 18:05:16 20° NNE 18:08:12 64° ESE 18:12:29 10° S
Cosmos 2297 3.9 18:04:12 10° SW 18:09:48 69° WNW 18:14:37 14° NNE
METEOR-M 4.4 18:05:00 10° SE 18:10:00 43° ENE 18:15:02 10° N
Cosmos 1666 2.6 18:08:39 10° N 18:12:32 71° E 18:16:24 10° SSE
Cosmos 1190 Rocket 3.9 18:08:33 10° NNW 18:13:48 68° ENE 18:18:58 10° SSE
NOSS 7 (E) 4.2 18:11:23 10° SSW 18:14:45 68° SE 18:14:56 66° E
Cosmos 921 Rocket 3.4 18:10:49 10° SSW 18:15:03 61° WNW 18:18:23 17° N
BREEZE-M R/B 4.1 18:04:50 10° WSW 18:15:03 77° NNW 18:17:20 36° ENE
NOSS 2-1 (D) 3.4 18:11:14 10° SW 18:15:05 77° NW 18:16:48 35° NNE
NOSS 2-1 (C) 3.4 18:11:54 10° SW 18:15:46 78° NW 18:17:28 36° NNE
Cosmos 1025 Rocket 2.9 18:12:20 10° S 18:16:43 76° E 18:19:24 23° NNE
Cosmos 2239 Rocket 4.4 18:11:36 10° N 18:17:50 87° W 18:24:00 10° S
Cosmos 2278 Rocket 3.7 18:13:20 10° WSW 18:18:22 32° NW 18:23:26 10° N
GEOS 3 Rocket 3.7 18:17:19 36° E 18:19:00 50° NE 18:23:58 10° NNW
IDEFIX/ARIANE 42P 4.4 18:20:57 10° SSW 18:25:33 32° W 18:30:11 10° NNW
NOSS 7 (D) 4.3 18:22:41 10° SW 18:25:52 74° S 18:25:52 74° S
Cosmos 1821 Rocket 4.1 18:24:23 10° NNW 18:30:29 74° W 18:36:33 10° S
Cosmos 1833 Rocket 4.0 18:26:32 10° NW 18:31:47 41° WSW 18:37:00 10° S
NOSS 2-1 (E) 3.9 18:30:39 10° SW 18:34:33 58° NW 18:35:39 43° N
Cosmos 2058 Rocket 3.6 18:30:57 10° N 18:39:37 11° SSE 18:39:51 10° SSE
DMSP B5D1-3 4.4 18:34:55 25° NNE 18:38:03 90° ESE 18:43:11 10° SSW
Meteor 1-28 Rocket 3.7 18:41:28 52° SSW 18:41:28 52° SSW 18:44:23 10° SSW
Cosmos 2082 Rocket 4.1 18:36:23 10° NW 18:41:14 30° WSW 18:46:04 10° SSW
Cosmos 1605 Rocket 3.8 18:34:58 10° N 18:41:19 79° E 18:47:29 10° SSE
USA 234 3.4 18:43:35 37° NE 18:46:21 69° NNW 18:52:49 10° WSW
FengYun 1-2 T 4.4 19:00:38 57° NNE 19:00:38 57° NNE 19:05:13 10° N
SL-8 R/B 4.1 18:55:41 10° WNW 18:59:45 54° NW 18:59:45 54° NW
Cosmos 407 Rocket 4.1 18:58:51 10° NNW 19:03:51 54° WSW 19:08:52 10° S
Cosmos 2056 Rocket 4.2 19:03:21 10° SW 19:08:33 51° WNW 19:10:05 39° NNW
Cosmos 676 Rocket 4.4 19:10:20 10° NNW 19:15:28 60° WSW 19:15:57 57° SW
ISS 0.1 19:16:07 10° NW 19:16:08 10° NW 19:16:08 10° NW
Cosmos 2369 Rocket 3.2 19:15:27 10° SSW 19:18:41 36° S 19:18:41 36° S
Cosmos 1727 Rocket 4.0 19:16:00 10° SSW 19:22:11 75° W 19:23:21 59° NNW
CZ-3B DEB 3.9 19:23:56 10° WNW 19:29:58 49° N 19:32:17 44° NE
BREEZE-M DEB (TANK) 4.4 19:38:43 10° WNW 19:49:17 48° NNW 19:49:17 48° NNW
